| time (UTC) | temp F | wind direction | speed MPH | gust MPH | rain 1hr in | rain 24hr in | rain mn in | humidity % | barometer mb |
| 20260506224601 | 57 | 245 | 1.0 | 6.0 | 0.00 | 0.00 | 0.00 | 75 | 1018.7 |
| 20260506223125 | 57 | 261 | 1.0 | 4.0 | 0.00 | 0.00 | 0.00 | 76 | 1018.7 |
| 20260506221603 | 57 | 240 | 0.0 | 3.0 | 0.00 | 0.00 | 0.00 | 76 | 1018.8 |
| 20260506220057 | 58 | 223 | 1.0 | 3.0 | 0.00 | 0.00 | 0.00 | 76 | 1018.9 |
| 20260506214608 | 58 | 217 | 2.0 | 8.0 | 0.00 | 0.00 | 0.00 | 74 | 1018.9 |
| 20260506213055 | 58 | 152 | 2.0 | 6.0 | 0.00 | 0.00 | 0.00 | 76 | 1018.9 |
| 20260506211556 | 58 | 191 | 1.0 | 8.0 | 0.00 | 0.00 | 0.00 | 76 | 1018.9 |
| 20260506210053 | 59 | 222 | 4.0 | 10.0 | 0.00 | 0.00 | 0.00 | 74 | 1019.0 |
| 20260506204551 | 60 | 172 | 6.0 | 11.0 | 0.00 | 0.00 | 0.00 | 72 | 1018.8 |
| 20260506203049 | 59 | 175 | 2.0 | 8.0 | 0.00 | 0.00 | 0.00 | 73 | 1018.8 |
| 20260506201546 | 59 | 205 | 2.0 | 10.0 | 0.00 | 0.00 | 0.00 | 75 | 1018.7 |
| 20260506200117 | 59 | 229 | 3.0 | 8.0 | 0.00 | 0.00 | 0.00 | 78 | 1018.8 |
| 20260506194541 | 58 | 259 | 0.0 | 10.0 | 0.00 | 0.00 | 0.00 | 80 | 1018.7 |
| 20260506193042 | 58 | 158 | 3.0 | 9.0 | 0.00 | 0.00 | 0.00 | 80 | 1018.6 |
| 20260506191538 | 58 | 200 | 2.0 | 8.0 | 0.00 | 0.00 | 0.00 | 80 | 1018.6 |
| 20260506190038 | 57 | 234 | 2.0 | 6.0 | 0.00 | 0.00 | 0.00 | 81 | 1018.6 |
| 20260506184536 | 57 | 216 | 2.0 | 7.0 | 0.00 | 0.00 | 0.00 | 82 | 1018.5 |
| 20260506183035 | 57 | 148 | 2.0 | 9.0 | 0.00 | 0.00 | 0.00 | 82 | 1018.4 |
| 20260506181537 | 57 | 149 | 3.0 | 7.0 | 0.00 | 0.00 | 0.00 | 81 | 1018.3 |
| 20260506180043 | 57 | 147 | 1.0 | 6.0 | 0.00 | 0.00 | 0.00 | 82 | 1018.3 |
| 20260506174532 | 58 | 172 | 1.0 | 5.0 | 0.00 | 0.00 | 0.00 | 82 | 1018.3 |
| 20260506173028 | 57 | 181 | 4.0 | 6.0 | 0.00 | 0.00 | 0.00 | 83 | 1017.8 |
| 20260506171543 | 56 | 160 | 0.0 | 3.0 | 0.00 | 0.00 | 0.00 | 87 | 1018.1 |
| 20260506170026 | 55 | 264 | 2.0 | 6.0 | 0.00 | 0.00 | 0.00 | 87 | 1018.2 |
| 20260506164525 | 55 | 266 | 2.0 | 5.0 | 0.00 | 0.00 | 0.00 | 88 | 1018.1 |
| 20260506163028 | 56 | 287 | 2.0 | 4.0 | 0.00 | 0.00 | 0.00 | 86 | 1018.2 |
| 20260506161535 | 56 | 91 | 0.0 | 1.0 | 0.00 | 0.00 | 0.00 | 88 | 1017.9 |
| 20260506160020 | 55 | 145 | 0.0 | 2.0 | 0.00 | 0.00 | 0.00 | 89 | 1017.9 |
| 20260506154518 | 55 | 186 | 0.0 | 5.0 | 0.00 | 0.00 | 0.00 | 89 | 1017.6 |
| 20260506153017 | 55 | 128 | 2.0 | 6.0 | 0.00 | 0.00 | 0.00 | 90 | 1017.6 |
| 20260506151517 | 54 | 201 | 0.0 | 2.0 | 0.00 | 0.00 | 0.00 | 90 | 1017.6 |
| 20260506150023 | 54 | 123 | 0.0 | 0.0 | 0.00 | 0.00 | 0.00 | 90 | 1018.0 |
| 20260506144514 | 54 | 159 | 1.0 | 3.0 | 0.00 | 0.00 | 0.00 | 91 | 1017.6 |
| 20260506143014 | 54 | 124 | 0.0 | 3.0 | 0.00 | 0.00 | 0.00 | 90 | 1017.5 |
| 20260506141512 | 54 | 166 | 0.0 | 3.0 | 0.00 | 0.00 | 0.00 | 90 | 1017.5 |
| 20260506140011 | 54 | 149 | 1.0 | 3.0 | 0.00 | 0.00 | 0.00 | 90 | 1017.3 |
| 20260506134520 | 54 | 30 | 0.0 | 0.0 | 0.00 | 0.00 | 0.00 | 90 | 1017.4 |
| 20260506133011 | 54 | 25 | 0.0 | 2.0 | 0.00 | 0.00 | 0.00 | 90 | 1017.4 |
| 20260506131509 | 53 | 98 | 0.0 | 0.0 | 0.00 | 0.00 | 0.00 | 90 | 1017.3 |
| 20260506130007 | 53 | 118 | 0.0 | 0.0 | 0.00 | 0.00 | 0.00 | 90 | 1017.1 |
| 20260506124511 | 53 | 92 | 0.0 | 3.0 | 0.00 | 0.00 | 0.00 | 90 | 1016.9 |
| 20260506123005 | 53 | 91 | 0.0 | 2.0 | 0.00 | 0.00 | 0.00 | 90 | 1016.8 |
| 20260506121508 | 53 | 39 | 0.0 | 3.0 | 0.00 | 0.00 | 0.00 | 90 | 1016.8 |
| 20260506120009 | 53 | 338 | 0.0 | 1.0 | 0.00 | 0.00 | 0.00 | 90 | 1016.8 |
| 20260506114503 | 53 | 95 | 0.0 | 0.0 | 0.00 | 0.00 | 0.00 | 91 | 1016.6 |
| 20260506113059 | 53 | 95 | 0.0 | 0.0 | 0.00 | 0.00 | 0.00 | 91 | 1016.6 |
| 20260506111613 | 53 | 95 | 0.0 | 0.0 | 0.00 | 0.00 | 0.00 | 90 | 1016.5 |
| 20260506110056 | 53 | 95 | 0.0 | 0.0 | 0.00 | 0.00 | 0.00 | 90 | 1016.2 |
| 20260506104553 | 52 | 95 | 0.0 | 0.0 | 0.00 | 0.00 | 0.00 | 90 | 1016.0 |
| 20260506103052 | 52 | 295 | 0.0 | 0.0 | 0.00 | 0.00 | 0.00 | 91 | 1016.0 |
| 20260506101551 | 52 | 295 | 0.0 | 0.0 | 0.00 | 0.00 | 0.00 | 91 | 1015.9 |
| 20260506100050 | 51 | 295 | 0.0 | 0.0 | 0.00 | 0.00 | 0.00 | 91 | 1015.8 |
| 20260506094547 | 51 | 295 | 0.0 | 0.0 | 0.00 | 0.00 | 0.00 | 91 | 1015.6 |
| 20260506093052 | 51 | 295 | 0.0 | 0.0 | 0.00 | 0.00 | 0.00 | 91 | 1015.6 |
| 20260506091544 | 51 | 295 | 0.0 | 0.0 | 0.00 | 0.00 | 0.00 | 91 | 1015.6 |
| 20260506090043 | 52 | 295 | 0.0 | 0.0 | 0.00 | 0.00 | 0.00 | 91 | 1015.6 |
| 20260506084540 | 52 | 295 | 0.0 | 0.0 | 0.00 | 0.00 | 0.00 | 91 | 1015.4 |
| 20260506083042 | 52 | 295 | 0.0 | 0.0 | 0.00 | 0.00 | 0.00 | 91 | 1015.3 |
| 20260506081545 | 53 | 295 | 0.0 | 0.0 | 0.00 | 0.00 | 0.00 | 91 | 1015.2 |
| 20260506073032 | 54 | 295 | 0.0 | 0.0 | 0.00 | 0.00 | 0.00 | 90 | 1014.7 |
| 20260506071526 | 54 | 295 | 0.0 | 0.0 | 0.00 | 0.00 | 0.00 | 90 | 1014.7 |
| 20260506061533 | 56 | 297 | 0.0 | 3.0 | 0.00 | 0.00 | 0.00 | 89 | 1014.6 |
| 20260506044521 | 56 | 252 | 0.0 | 0.0 | 0.00 | 0.00 | 0.00 | 88 | 1013.7 |
| 20260506043019 | 57 | 252 | 0.0 | 0.0 | 0.00 | 0.00 | 0.00 | 87 | 1013.5 |
| 20260506041518 | 58 | 252 | 0.0 | 0.0 | 0.00 | 0.00 | 0.00 | 86 | 1013.4 |
| 20260506040025 | 58 | 276 | 0.0 | 0.0 | 0.00 | 0.00 | 0.00 | 85 | 1013.3 |
| 20260506034518 | 59 | 317 | 1.0 | 4.0 | 0.00 | 0.00 | 0.00 | 83 | 1013.3 |
| 20260506033017 | 59 | 263 | 0.0 | 4.0 | 0.00 | 0.00 | 0.00 | 80 | 1013.2 |
| 20260506031526 | 62 | 250 | 0.0 | 3.0 | 0.00 | 0.00 | 0.00 | 76 | 1013.1 |
| 20260506030016 | 63 | 246 | 1.0 | 4.0 | 0.00 | 0.00 | 0.00 | 74 | 1013.0 |
| 20260506024532 | 63 | 241 | 0.0 | 5.0 | 0.00 | 0.00 | 0.00 | 73 | 1013.0 |
| 20260506023016 | 64 | 238 | 0.0 | 4.0 | 0.00 | 0.00 | 0.00 | 71 | 1012.9 |
| 20260506021515 | 64 | 279 | 1.0 | 5.0 | 0.00 | 0.00 | 0.00 | 71 | 1012.9 |
| 20260506020015 | 65 | 274 | 1.0 | 4.0 | 0.00 | 0.00 | 0.00 | 70 | 1012.8 |
| 20260506014515 | 65 | 276 | 1.0 | 4.0 | 0.00 | 0.00 | 0.00 | 69 | 1012.8 |
| 20260506013115 | 65 | 285 | 1.0 | 4.0 | 0.00 | 0.00 | 0.00 | 69 | 1012.9 |
| 20260506011527 | 66 | 283 | 1.0 | 5.0 | 0.00 | 0.00 | 0.00 | 67 | 1012.8 |
| 20260506010012 | 69 | 221 | 0.0 | 1.0 | 0.00 | 0.00 | 0.00 | 62 | 1012.9 |
| 20260506004510 | 68 | 87 | 0.0 | 3.0 | 0.00 | 0.00 | 0.00 | 65 | 1012.9 |
| 20260506003013 | 67 | 43 | 0.0 | 4.0 | 0.00 | 0.00 | 0.00 | 65 | 1012.9 |
| 20260506001510 | 68 | 194 | 2.0 | 6.0 | 0.00 | 0.00 | 0.00 | 62 | 1013.1 |
| 20260506000007 | 67 | 319 | 0.0 | 7.0 | 0.00 | 0.00 | 0.00 | 65 | 1013.2 |
| 20260505234513 | 68 | 136 | 3.0 | 8.0 | 0.00 | 0.00 | 0.00 | 64 | 1013.4 |
| 20260505233004 | 67 | 65 | 0.0 | 5.0 | 0.00 | 0.00 | 0.00 | 67 | 1013.5 |